TimeCDT,TemperatureF,Dew PointF,Humidity,Sea Level PressureIn,VisibilityMPH,Wind Direction,Wind SpeedMPH,Gust SpeedMPH,PrecipitationIn,Events,Conditions,WindDirDegrees,DateUTC
12:54 AM,72.0,66.9,84,30.06,10.0,Calm,Calm,-,N/A,,Partly Cloudy,0,2013-08-29 05:54:00
1:54 AM,70.0,66.0,87,30.06,10.0,Calm,Calm,-,N/A,,Clear,0,2013-08-29 06:54:00
2:54 AM,69.1,66.9,93,30.05,10.0,Calm,Calm,-,N/A,,Clear,0,2013-08-29 07:54:00
3:54 AM,64.9,64.0,97,30.05,6.0,SSE,3.5,-,N/A,,Clear,150,2013-08-29 08:54:00
4:54 AM,66.0,64.9,96,30.05,8.0,Calm,Calm,-,N/A,,Clear,0,2013-08-29 09:54:00
5:47 AM,64.4,62.6,94,30.07,1.2,SSW,4.6,-,N/A,,Clear,200,2013-08-29 10:47:00
5:52 AM,64.4,64.4,100,30.07,3.0,SSW,3.5,-,N/A,,Clear,210,2013-08-29 10:52:00
5:54 AM,64.9,64.0,97,30.05,5.0,SSW,3.5,-,N/A,,Clear,210,2013-08-29 10:54:00
6:17 AM,64.4,64.4,100,30.08,2.0,Calm,Calm,-,N/A,,Clear,0,2013-08-29 11:17:00
6:27 AM,64.4,64.4,100,30.08,0.8,Calm,Calm,-,N/A,,Clear,0,2013-08-29 11:27:00
6:38 AM,64.4,64.4,100,30.08,2.0,Calm,Calm,-,N/A,,Clear,0,2013-08-29 11:38:00
6:46 AM,64.4,64.4,100,30.08,4.0,Calm,Calm,-,N/A,,Clear,0,2013-08-29 11:46:00
6:54 AM,64.0,63.0,96,30.08,4.0,East,3.5,-,N/A,,Clear,90,2013-08-29 11:54:00
7:54 AM,69.1,66.9,93,30.08,5.0,ESE,3.5,-,N/A,,Clear,120,2013-08-29 12:54:00
8:32 AM,71.6,68.0,88,30.09,6.0,SE,4.6,-,N/A,,Mostly Cloudy,140,2013-08-29 13:32:00
8:54 AM,73.9,66.9,79,30.08,9.0,South,10.4,-,N/A,,Overcast,180,2013-08-29 13:54:00
9:23 AM,75.2,66.2,73,30.09,10.0,South,9.2,-,N/A,,Mostly Cloudy,170,2013-08-29 14:23:00
9:44 AM,77.0,66.2,69,30.08,10.0,South,9.2,-,N/A,,Mostly Cloudy,180,2013-08-29 14:44:00
9:52 AM,77.0,66.2,69,30.09,10.0,South,10.4,-,N/A,,Scattered Clouds,190,2013-08-29 14:52:00
9:54 AM,77.0,66.0,69,30.07,10.0,South,9.2,-,N/A,,Scattered Clouds,190,2013-08-29 14:54:00
10:54 AM,81.0,66.9,62,30.06,10.0,SSE,9.2,-,N/A,,Clear,150,2013-08-29 15:54:00
11:54 AM,82.9,68.0,60,30.05,10.0,South,11.5,-,N/A,,Scattered Clouds,170,2013-08-29 16:54:00
12:54 PM,84.9,68.0,57,30.02,10.0,South,12.7,17.3,N/A,,Scattered Clouds,180,2013-08-29 17:54:00
1:54 PM,87.1,68.0,53,30.01,10.0,SSW,10.4,-,N/A,,Scattered Clouds,210,2013-08-29 18:54:00
2:54 PM,87.1,69.1,55,29.99,10.0,South,11.5,-,N/A,,Scattered Clouds,190,2013-08-29 19:54:00
3:54 PM,87.1,70.0,57,29.96,10.0,South,11.5,-,N/A,,Mostly Cloudy,180,2013-08-29 20:54:00
4:54 PM,88.0,71.1,57,29.96,10.0,South,9.2,-,N/A,,Mostly Cloudy,190,2013-08-29 21:54:00
5:54 PM,86.0,71.1,61,29.94,10.0,South,10.4,-,N/A,,Clear,180,2013-08-29 22:54:00
6:54 PM,84.0,71.1,65,29.93,10.0,South,9.2,-,N/A,,Clear,180,2013-08-29 23:54:00
7:54 PM,82.0,71.1,69,29.94,10.0,South,6.9,-,N/A,,Mostly Cloudy,180,2013-08-30 00:54:00
8:54 PM,78.1,72.0,81,29.95,10.0,South,8.1,-,0.00,,Partly Cloudy,190,2013-08-30 01:54:00
9:54 PM,78.1,72.0,81,29.94,10.0,South,9.2,-,N/A,,Partly Cloudy,190,2013-08-30 02:54:00
10:54 PM,75.9,71.1,85,29.94,10.0,South,6.9,-,N/A,,Scattered Clouds,170,2013-08-30 03:54:00
11:54 PM,75.0,70.0,84,29.92,10.0,South,8.1,-,N/A,,Overcast,170,2013-08-30 04:54:00